{"data":{"norad_id":66333,"intl_designator":"2025-253Q","name":"STARLINK-35400","alt_names":[],"object_type":"PAYLOAD","status":"ACTIVE","operator":null,"country":"US","launch_date":"2025-11-06","launch_site_code":"AFETR","launch_vehicle":null,"mission":null,"orbit_class":"UNKNOWN","rcs_meters":null,"size_class":null,"mass_kg":null,"dimensions":null,"purposes":["comms"],"wikipedia_slug":null,"has_3d_model":false,"image_url":null,"decayed_at":null,"tle_current":{"epoch":"2026-09-20T16:00:01.999584Z","epoch_age_seconds":82313,"freshness":"FRESH","line1":"1 66333U 25253Q   26263.66668981  .00019101  00000+0  70228-3 0  9990","line2":"2 66333  42.9992 191.8207 0001852 298.8664 237.0158 15.27558349  5780","mean_motion":15.27558349,"eccentricity":0.0001852,"inclination_deg":42.9992,"raan_deg":191.8207,"arg_perigee_deg":298.8664,"mean_anomaly_deg":237.0158,"bstar":0.00070228,"rev_number":578,"period_min":94.268084812779,"perigee_km":481.84322401649,"apogee_km":484.38463136011,"semimajor_km":6861.2509276883,"source":"CELESTRAK","updated_at":"2026-09-21T09:00:35.875613Z"}}}